Flag for Tunisia Weather past 2 weeks in Tunis, Tunisia

Now
75 °F

Scattered clouds.


Feels Like: 78 °F
Forecast: 61 / 74 °F
Wind: 15 mph from Northwest

Location: Tunis-Carthage

Current Time: Oct 24, 2014 at 2:51:01 PM

Latest Report: Oct 24, 2014 at 2:00 PM


Visibility: N/A

Pressure: 29.92 "Hg

Humidity: 44%

Dew point: 52 °F

Location of TunisLocation

Historic Weather in Tunis — Graph

°F

Tunis temperature yesterday

Maximum temperature yesterday: 73 °F (at 1:00 PM)
Minimum temperature yesterday: 64 °F (at 3:00 AM)
Average temperature yesterday: 68 °F

Past Weeks' High & Low Weather Summary

 TemperatureHumidityPressure
High95 °F (Oct 14, 11:30 AM)100% (Oct 12, 6:30 AM)30.24 "Hg (Oct 12, 6:30 AM)
Low61 °F (Oct 21, 4:00 AM)23% (Oct 14, 2:00 PM)29.71 "Hg (Oct 14, 8:00 PM)
Average76 °F68%30.01 "Hg
* Reported Oct 9 1:00 PM — Oct 24 1:30 PM, Tunis, Weather by CustomWeather, © 2014

Note: Actual official high and low records may vary slightly from our data, if they occured in-between our weather recording intervals... More about our weather records

Advertising

Tunis weather history for previous 24 hours

 ConditionsComfort  
Time TempWeatherWind HumidityBarometerVisibility
1:30 PM
Oct 24
77 °FScattered clouds.16 mph39%29.92 "HgN/A
1:00 PM77 °FScattered clouds.15 mph42%29.92 "HgN/A
12:30 PM77 °FScattered clouds.18 mph42%29.92 "HgN/A
12:00 PM77 °FScattered clouds.18 mph47%29.92 "HgN/A
11:30 AM75 °FScattered clouds.17 mph50%29.92 "HgN/A
11:00 AM73 °FScattered clouds.17 mph50%29.95 "HgN/A
10:30 AM73 °FScattered clouds.17 mph53%29.95 "HgN/A
10:00 AM72 °FScattered clouds.18 mph57%29.92 "HgN/A
9:30 AM72 °FScattered clouds.15 mph57%29.92 "HgN/A
9:00 AM70 °FScattered clouds.14 mph60%29.92 "HgN/A
8:30 AM70 °FPassing clouds.10 mph60%29.92 "Hg5 mi
8:00 AM68 °FPassing clouds.9 mph64%29.89 "Hg5 mi
7:30 AM66 °FPassing clouds.10 mph68%29.89 "Hg5 mi
7:00 AM66 °FPassing clouds.9 mph68%29.86 "Hg5 mi
6:30 AM66 °FPassing clouds.9 mph68%29.86 "Hg5 mi
6:00 AM66 °FPassing clouds.8 mph68%29.86 "HgN/A
5:00 AM64 °FPassing clouds.8 mph73%29.86 "HgN/A
4:30 AM66 °FPassing clouds.10 mph68%29.86 "HgN/A
4:00 AM66 °FPassing clouds.10 mph68%29.86 "HgN/A
3:30 AM66 °FPassing clouds.10 mph68%29.86 "HgN/A
3:00 AM66 °FPassing clouds.12 mph68%29.86 "HgN/A
2:30 AM68 °FPassing clouds.15 mph64%29.86 "HgN/A
2:00 AM68 °FPassing clouds.14 mph64%29.86 "HgN/A
1:30 AM68 °FPassing clouds.9 mph64%29.86 "HgN/A
1:00 AM68 °FPassing clouds.13 mph64%29.86 "HgN/A
12:00 AM68 °FPassing clouds.20 mph64%29.86 "HgN/A
11:30 PM
Oct 23
68 °FPassing clouds.15 mph64%29.86 "HgN/A
11:00 PM68 °FPassing clouds.21 mph64%29.86 "HgN/A
10:30 PM68 °FPassing clouds.21 mph60%29.86 "HgN/A
10:00 PM68 °FPassing clouds.15 mph60%29.89 "HgN/A
9:00 PM68 °FPassing clouds.14 mph64%29.89 "HgN/A
8:30 PM68 °FPassing clouds.14 mph64%29.89 "HgN/A
8:00 PM68 °FPassing clouds.9 mph60%29.89 "HgN/A
7:30 PM68 °FPassing clouds.9 mph60%29.86 "HgN/A
7:00 PM68 °FPassing clouds.10 mph56%29.89 "HgN/A
6:30 PM68 °FPassing clouds.12 mph56%29.89 "HgN/A
6:00 PM68 °FPassing clouds.13 mph53%29.89 "HgN/A
5:30 PM70 °FScattered clouds.15 mph50%29.89 "HgN/A
5:00 PM70 °FScattered clouds.17 mph50%29.89 "HgN/A
4:30 PM70 °FScattered clouds.22 mph43%29.89 "HgN/A
4:00 PM72 °FStrong thunderstorms. Scattered clouds.23 mph44%29.92 "HgN/A
3:30 PM70 °FScattered clouds.23 mph50%29.92 "HgN/A
3:00 PM72 °FScattered clouds.21 mph47%29.92 "HgN/A
2:30 PM72 °FScattered clouds.23 mph47%29.92 "HgN/A
2:03 PM72 °FScattered clouds.24 mph47%29.92 "HgN/A
2:00 PM72 °FScattered clouds.25 mph47%29.92 "HgN/A
Weather by CustomWeather, © 2014

See weather overviewHow to use our weather pages